Weather History for Provincetown, MA

Change the Weather History Date:

Tuesday, February 28, 2012

  Actual Average Record
Temperature  
Mean Temperature 42 °F -  
Max Temperature 46 °F 38 °F 51 °F (2011)
Min Temperature 37 °F 27 °F 8 °F (2014)
Degree Days  
Heating Degree Days 24    
Moisture  
Dew Point 26 °F    
Average Humidity 55    
Maximum Humidity 76    
Minimum Humidity 45    
Precipitation  
Precipitation 0.00 in - - ()
Sea Level Pressure  
Sea Level Pressure 30.23 in    
Wind  
Wind Speed 15 mph (NW)    
Max Wind Speed 23 mph    
Max Gust Speed 30 mph    
Visibility 10 miles    
Events      
Averages and records for this station are not official NWS values.
T = Trace of Precipitation, MM = Missing Value Source: NWS Daily Summary

Daily Weather History Graph

Daily Weather History Graph

Search for Another Location

Airport:

Trip Planner

Search our weather history database for the weather conditions in past years. The results will help you decide how hot, cold, wet, or windy it might be!

Date:

Astronomy

Feb. 28, 2012 Rise Set
Actual Time 6:18 AM EST 5:29 PM EST
Civil Twilight 5:50 AM EST 5:57 PM EST
Nautical Twilight 5:18 AM EST 6:29 PM EST
Astronomical Twilight 4:45 AM EST 7:02 PM EST
Moon 9:16 AM EST (2/28) No Moon Set
Length of Visible Light 12h 06m
Length of Day
11h 10m
Waxing Crescent, 37% of the Moon is Illuminated
Feb 28
Waxing Crescent
Feb 29
First Quarter
Mar 8
Full
Mar 14
Last Quarter
Mar 22
New

Hourly Weather History & Observations

Time (EST) Temp. Windchill Dew Point Humidity Pressure Visibility Wind Dir Wind Speed Gust Speed Precip Events Conditions
12:35 AM 42.8 °F 37.5 °F 35.6 °F 76% 30.02 in 10.0 mi West 9.2 mph - N/A   Overcast
12:55 AM 42.8 °F 35.8 °F 33.8 °F 70% 30.04 in 10.0 mi West 13.8 mph - N/A   Overcast
1:15 AM 42.8 °F 37.0 °F 35.6 °F 76% 30.03 in 10.0 mi West 10.4 mph - N/A   Mostly Cloudy
1:55 AM 41.0 °F 34.7 °F 33.8 °F 76% 30.03 in 10.0 mi WNW 10.4 mph - N/A   Partly Cloudy
2:15 AM 41.0 °F 32.8 °F 33.8 °F 76% 30.03 in 10.0 mi WNW 16.1 mph 19.6 mph N/A   Clear
2:35 AM 42.8 °F 35.4 °F 32.0 °F 66% 30.04 in 10.0 mi WNW 15.0 mph 21.9 mph N/A   Clear
2:55 AM 42.8 °F 35.8 °F 32.0 °F 66% 30.05 in 10.0 mi WNW 13.8 mph 20.7 mph N/A   Partly Cloudy
3:15 AM 42.8 °F 35.1 °F 30.2 °F 61% 30.05 in 10.0 mi WNW 16.1 mph 23.0 mph N/A   Clear
3:35 AM 41.0 °F 31.6 °F 28.4 °F 61% 30.06 in 10.0 mi WNW 20.7 mph 29.9 mph N/A   Clear
3:55 AM 41.0 °F 31.1 °F 26.6 °F 57% 30.07 in 10.0 mi WNW 23.0 mph 29.9 mph N/A   Mostly Cloudy
4:15 AM 41.0 °F 31.1 °F 26.6 °F 57% 30.08 in 10.0 mi WNW 23.0 mph 28.8 mph N/A   Scattered Clouds
4:55 AM 41.0 °F 31.6 °F 26.6 °F 57% 30.11 in 10.0 mi WNW 20.7 mph 29.9 mph N/A   Mostly Cloudy
5:15 AM 41.0 °F 32.2 °F 26.6 °F 57% 30.12 in 10.0 mi WNW 18.4 mph 29.9 mph N/A   Overcast
5:35 AM 39.2 °F 29.3 °F 26.6 °F 61% 30.13 in 10.0 mi West 20.7 mph 25.3 mph N/A   Mostly Cloudy
5:55 AM 39.2 °F 29.6 °F 26.6 °F 61% 30.14 in 10.0 mi WNW 19.6 mph 26.5 mph N/A   Partly Cloudy
6:15 AM 39.2 °F 28.7 °F 24.8 °F 56% 30.15 in 10.0 mi WNW 23.0 mph - N/A   Clear
6:35 AM 39.2 °F 29.8 °F 26.6 °F 61% 30.16 in 10.0 mi WNW 18.4 mph 25.3 mph N/A   Clear
6:56 AM 39.2 °F 29.6 °F 26.6 °F 61% 30.17 in 10.0 mi WNW 19.6 mph 24.2 mph N/A   Clear
7:35 AM 41.0 °F 32.5 °F 26.6 °F 57% 30.20 in 10.0 mi WNW 17.3 mph 27.6 mph N/A   Clear
7:55 AM 41.0 °F 31.6 °F 26.6 °F 57% 30.21 in 10.0 mi WNW 20.7 mph 27.6 mph N/A   Clear
8:15 AM 41.0 °F 32.2 °F 26.6 °F 57% 30.22 in 10.0 mi WNW 18.4 mph 24.2 mph N/A   Clear
8:35 AM 42.8 °F 34.3 °F 26.6 °F 53% 30.22 in 10.0 mi WNW 19.6 mph 26.5 mph N/A   Clear
8:55 AM 42.8 °F 33.8 °F 26.6 °F 53% 30.22 in 10.0 mi WNW 21.9 mph 29.9 mph N/A   Clear
9:15 AM 42.8 °F 34.0 °F 26.6 °F 53% 30.22 in 10.0 mi WNW 20.7 mph 24.2 mph N/A   Clear
9:35 AM 42.8 °F 34.3 °F 28.4 °F 57% 30.23 in 10.0 mi WNW 19.6 mph 27.6 mph N/A   Clear
9:55 AM 42.8 °F 34.5 °F 28.4 °F 57% 30.24 in 10.0 mi WNW 18.4 mph 26.5 mph N/A   Clear
10:55 AM 44.6 °F 37.2 °F 28.4 °F 53% 30.25 in 10.0 mi NW 17.3 mph 24.2 mph N/A   Mostly Cloudy
11:15 AM 44.6 °F 37.2 °F 26.6 °F 49% 30.25 in 10.0 mi NW 17.3 mph 21.9 mph N/A   Partly Cloudy
11:35 AM 46.4 °F 40.4 °F 28.4 °F 50% 30.25 in 10.0 mi NW 13.8 mph 20.7 mph N/A   Clear
11:55 AM 44.6 °F 37.4 °F 28.4 °F 53% 30.26 in 10.0 mi NW 16.1 mph 23.0 mph N/A   Mostly Cloudy
12:15 PM 44.6 °F 38.1 °F 30.2 °F 57% 30.26 in 10.0 mi NW 13.8 mph - N/A   Scattered Clouds
12:35 PM 44.6 °F 38.4 °F 28.4 °F 53% 30.27 in 10.0 mi NNW 12.7 mph - N/A   Clear
12:55 PM 44.6 °F 38.1 °F 28.4 °F 53% 30.26 in 10.0 mi NNW 13.8 mph - N/A   Clear
1:15 PM 44.6 °F 38.1 °F 28.4 °F 53% 30.27 in 10.0 mi NW 13.8 mph 18.4 mph N/A   Clear
1:55 PM 46.4 °F 40.4 °F 28.4 °F 50% 30.27 in 10.0 mi NW 13.8 mph 18.4 mph N/A   Clear
2:15 PM 44.6 °F 37.8 °F 26.6 °F 49% 30.28 in 10.0 mi NNW 15.0 mph 20.7 mph N/A   Clear
2:35 PM 44.6 °F 37.4 °F 26.6 °F 49% 30.28 in 10.0 mi NNW 16.1 mph - N/A   Clear
2:55 PM 44.6 °F 38.4 °F 26.6 °F 49% 30.29 in 10.0 mi NNW 12.7 mph 20.7 mph N/A   Clear
3:15 PM 42.8 °F 35.8 °F 24.8 °F 49% 30.29 in 10.0 mi NNW 13.8 mph - N/A   Clear
3:35 PM 42.8 °F 36.2 °F 26.6 °F 53% 30.29 in 10.0 mi North 12.7 mph - N/A   Clear
3:55 PM 42.8 °F 35.1 °F 24.8 °F 49% 30.30 in 10.0 mi North 16.1 mph 20.7 mph N/A   Clear
4:15 PM 42.8 °F 35.8 °F 24.8 °F 49% 30.30 in 10.0 mi North 13.8 mph - N/A   Clear
4:55 PM 41.0 °F 33.9 °F 23.0 °F 49% 30.32 in 10.0 mi North 12.7 mph 18.4 mph N/A   Clear
5:15 PM 41.0 °F 33.1 °F 21.2 °F 45% 30.31 in 10.0 mi North 15.0 mph - N/A   Clear
5:35 PM 39.2 °F 31.2 °F 21.2 °F 49% 30.32 in 10.0 mi North 13.8 mph - N/A   Clear
6:15 PM 39.2 °F 30.8 °F 19.4 °F 45% 30.35 in 10.0 mi North 15.0 mph 18.4 mph N/A   Clear
6:35 PM 39.2 °F 31.6 °F 19.4 °F 45% 30.35 in 10.0 mi North 12.7 mph - N/A   Clear
6:55 PM 39.2 °F 30.5 °F 21.2 °F 49% 30.36 in 10.0 mi North 16.1 mph 19.6 mph N/A   Clear
7:15 PM 39.2 °F 30.2 °F 19.4 °F 45% 30.36 in 10.0 mi NNW 17.3 mph 21.9 mph N/A   Clear
7:35 PM 39.2 °F 31.2 °F 19.4 °F 45% 30.37 in 10.0 mi North 13.8 mph 21.9 mph N/A   Clear
7:55 PM 39.2 °F 31.2 °F 19.4 °F 45% 30.37 in 10.0 mi North 13.8 mph 21.9 mph N/A   Partly Cloudy
8:15 PM 37.4 °F 28.2 °F 19.4 °F 48% 30.37 in 10.0 mi North 16.1 mph 19.6 mph N/A   Partly Cloudy
8:35 PM 37.4 °F 29.8 °F 19.4 °F 48% 30.38 in 10.0 mi North 11.5 mph 18.4 mph N/A   Clear
8:55 PM 37.4 °F 29.3 °F 19.4 °F 48% 30.39 in 10.0 mi North 12.7 mph 17.3 mph N/A   Clear
9:15 PM 37.4 °F 29.8 °F 19.4 °F 48% 30.39 in 10.0 mi North 11.5 mph - N/A   Clear
9:55 PM 37.4 °F 29.8 °F 17.6 °F 45% 30.39 in 10.0 mi North 11.5 mph 16.1 mph N/A   Clear
10:15 PM 37.4 °F 32.1 °F 17.6 °F 45% 30.40 in 10.0 mi North 6.9 mph - N/A   Clear
10:35 PM 37.4 °F 30.8 °F 17.6 °F 45% 30.39 in 10.0 mi North 9.2 mph - N/A   Clear
11:15 PM 37.4 °F 32.1 °F 17.6 °F 45% 30.39 in 10.0 mi North 6.9 mph - N/A   Scattered Clouds
11:35 PM 35.6 °F 30.7 °F 17.6 °F 48% 30.39 in 10.0 mi NNW 5.8 mph - N/A   Partly Cloudy
11:55 PM 35.6 °F 31.7 °F 17.6 °F 48% 30.39 in 10.0 mi North 4.6 mph - N/A   Clear